This is the latest recevied weather packets stored in our database for station/object WA4TPR. If no packets are shown the sender has not sent any weather packets the latest 10 day(s).
| Time | Temp. | Humidity | Pressure | Rain* | Wind** | Luminosity | Snow |
|---|---|---|---|---|---|---|---|
| 1777722133 | 20° C | 99% | 1014.8 hPa | 0 mm | - | 52 W/m² | - |
| 1777721830 | 20° C | 99% | 1014.7 hPa | 0 mm | - | 45 W/m² | - |
| 1777721528 | 20° C | 99% | 1014.8 hPa | 0 mm | - | 35 W/m² | - |
| 1777721225 | 19.44° C | 99% | 1014.6 hPa | 0 mm | - | 33 W/m² | - |
| 1777720923 | 19.44° C | 99% | 1014.9 hPa | 0 mm | - | 28 W/m² | - |
| 1777720620 | 18.89° C | 99% | 1014.9 hPa | 0 mm | - | 22 W/m² | - |
| 1777720317 | 18.89° C | 99% | 1014.9 hPa | 0 mm | - | 19 W/m² | - |
| 1777720015 | 18.89° C | 99% | 1014.9 hPa | 0 mm | - | 15 W/m² | - |
| 1777719712 | 18.89° C | 99% | 1014.6 hPa | 0 mm | - | 11 W/m² | - |
| 1777719409 | 18.89° C | 99% | 1014.7 hPa | 0 mm | - | 7 W/m² | - |
| 1777719106 | 18.33° C | 99% | 1014.6 hPa | 0 mm | - | 4 W/m² | - |
| 1777718803 | 18.89° C | 99% | 1014.8 hPa | 0 mm | - | 2 W/m² | - |
| 1777718501 | 18.89° C | 99% | 1014.7 hPa | 0 mm | - | 1 W/m² | - |
| 1777718198 | 18.89° C | 99% | 1014.8 hPa | 0 mm | - | 1 W/m² | - |
| 1777717896 | 18.89° C | 99% | 1014.7 hPa | 0 mm | - | 0 W/m² | - |
| 1777717593 | 18.89° C | 99% | 1014.8 hPa | 0 mm | - | 0 W/m² | - |
| 1777717289 | 18.89° C | 99% | 1014.8 hPa | 0 mm | - | 0 W/m² | - |
| 1777716988 | 18.89° C | 99% | 1015 hPa | 0 mm | - | 0 W/m² | - |
| 1777716686 | 18.89° C | 99% | 1015 hPa | 0 mm | - | 0 W/m² | - |
| 1777716384 | 18.89° C | 99% | 1015 hPa | 0 mm | - | 0 W/m² | - |
| 1777716082 | 18.89° C | 99% | 1015.2 hPa | 0 mm | - | 0 W/m² | - |
| 1777715780 | 18.89° C | 99% | 1015.1 hPa | 0 mm | - | 0 W/m² | - |
| 1777715476 | 18.89° C | 99% | 1015.1 hPa | 0 mm | - | 0 W/m² | - |
| 1777715173 | 18.89° C | 99% | 1015.1 hPa | 0 mm | - | 0 W/m² | - |
| 1777714872 | 19.44° C | 99% | 1015 hPa | 0 mm | - | 0 W/m² | - |
* Rain latest hour (hover to see other rain measurements)
** Current wind speed in m/s (hover to see current wind gust speed)